Location: Willingham
(52.3167°N, 0.0667°E)
Time: 20:55:21
(UTC+00:00)

Cosmos 1500 Rocket - Pass Details

Date: 19 May 2025
Orbit: 598 x 623 km, 82.5° (Epoch: 21 June)

Event Time Altitude Azimuth Distance (km) Brightness Sun altitude
Rises 22:45:06 0° 353° (N) 2,880 8.7 -16.1°
Reaches altitude 10° 22:47:23 10° 359° (N) 1,975 7.4 -16.2°
Maximum altitude 22:51:37 48° 74° (ENE) 811 4.1 -16.3°
Enters shadow 22:53:41 27° 134° (SE) 1,198 4.5 -16.4°
